Location: Domachevo
(51.7500°N, 23.6000°E)
Time: 14:15:45
(UTC+03:00)

Envisat - Visible Passes

Search period start: 29 May 2017 00:00
Search period end: 08 June 2017 00:00
Orbit: 764 x 766 km, 98.2° (Epoch: 28 May)

Date Brightness Start Highest point End Pass type
(mag) Time Alt. Az. Time Alt. Az. Time Alt. Az.
29 May 5.2 22:31:50 10° SW 22:35:46 22° W 22:39:42 10° NW visible
31 May 5.6 22:59:11 10° WSW 23:01:45 14° W 23:04:19 10° NW visible
01 Jun 5.0 22:20:18 10° SSW 22:24:34 27° W 22:28:53 10° NW visible
03 Jun 5.5 22:47:16 10° SW 22:50:31 17° W 22:53:47 10° NW visible
05 Jun 6.0 23:16:25 10° W 23:16:34 10° W 23:16:43 10° W visible
06 Jun 5.3 22:35:33 10° SW 22:39:18 21° W 22:43:05 10° NW visible
